SCP
0 0 0 0 0 0 0 0 0 0 0 0 0 0 -0 0 0 0 0 0 0 0 0 0 0 0 0 0 0 0 0 0 0 0 0 0 0 0 0 0 0 0 0
0 0 0 0 0 0 0 0 0 0 0 0 0 -0 -0 0 0 0 0 0 0 0 0 0 0 0 0 0 0 0 0 0 0 0 0 0 0 0 0 0 0 0 0
0 0 0 0 0 0 0 0 0 0 -0 -0 -0 -0 0 0 0 0 0 0 0 0 0 0 0 0 0 0 0 0 0 0 0 0 0 0 0 0 0 0 0 0 0
0 0 0 0 0 0 0 0 0 0 0 0 0 0 0 0 0 0 0 0 0 0 0 0 0 0 0 0 0 0 0 0 0 0 0 0 0 0 0 0 0 0 0
0 0 0 0 0 -0 0 0 0 0 -0 0 -0 -0 0 0 0 0 0 0 0 0 0 0 0 0 0 0 0 0 -0 0 0 0 0 0 0 0 0 0 0 0 0
0 0 0 0 0 0 0 0 0 -0 -0 0 0 -0 0 0 0 0 0 0 0 0 0 0 0 0 0 0 0 0 0 0 0 0 0 0 0 0 0 0 0 0 0
0 0 0 0 0 0 -0 0 -0 -0 -0 -0 -0 -0 0 0 0 0 0 0 0 0 0 0 0 0 0 0 0 0 0 0 0 0 0 0 0 0 0 0 0 0 0
0 0 0 0 0 0 -0 -0 0 0 0 0 -0 -0 -0 0 0 0 0 0 0 0 0 0 0 0 0 0 0 0 0 0 0 0 0 0 0 0 0 0 0 0 0
0 0 0 0 0 0 0 0 0 0 0 0 0 0 0 0 -0 -0 0 0 0 0 0 0 0 0 0 0 0 0 0 0 0 0 0 0 0 0 0 0 0 0 0
0 0 0 0 0 0 0 0 0 0 0 0 0 0 -0 0 -0 -0 -0 0 0 0 0 0 0 0 0 0 0 0 0 0 0 0 0 0 0 0 0 0 0 0 0
0 0 0 0 0 0 0 0 0 0 0 0 0 0 -0 -0 -0 -0 -0 -0 0 0 0 0 0 -0 -0 0 0 0 0 0 0 0 0 0 0 0 0 0 0 0 0
0 0 0 0 0 0 0 0 0 -0 -0 0 0 0 0 0 -0 -0 -0 -0 -0 -0 0 0 0 -0 -0 -0 0 0 0 0 0 0 0 0 0 0 0 0 0 0 0
0 0 0 0 0 0 0 0 0 0 0 0 0 0 0 0 -0 0 0 0 0 0 -0 0 -0 -0 -0 -0 -0 -0 0 0 0 0 0 0 0 0 0 0 0 0 0
0 0 0 0 0 0 0 0 0 0 0 0 0 0 0 0 0 0 0 0 0 0 0 -0 -0 -0 -0 -0 0 -0 0 0 0 0 0 0 0 0 0 0 0 0 0
0 0 0 0 0 0 0 0 0 0 0 0 0 0 0 0 0 0 0 0 0 0 0 0 -0 -0 -0 -0 -0 -0 -0 -0 -0 0 0 0 0 0 0 0 0 0 0
-0 0 0 0 0 0 0 0 0 0 0 0 0 0 0 0 0 0 0 0 0 0 0 -0 -0 -0 -0 0 0 0 0 0 0 0 0 0 0 0 0 0 0 0 0
-0 -0 0 0 0 0 0 0 0 0 0 0 0 0 0 0 -0 -0 0 -0 0 0 0 0 0 0 0 0 0 0 0 0 0 0 0 0 0 0 0 0 0 0 0
-0 -0 -0 0 0 0 0 0 0 0 0 0 0 -0 0 0 0 0 0 0 0 0 0 0 0 0 0 0 0 0 0 0 0 0 0 0 0 0 0 0 0 0 0
0 0 -0 0 0 0 0 0 0 0 0 0 0 0 0 0 0 0 0 0 0 0 0 0 0 0 0 0 0 0 0 0 0 0 0 0 0 0 0 0 0 0 0
0 0 -0 -0 0 0 0 0 0 0 0 0 0 0 0 0 0 0 0 0 0 0 0 0 0 0 0 0 0 0 0 0 0 0 0 0 0 0 0 0 0 0 0
0 0 0 0 0 0 0 0 0 0 0 0 0 0 0 0 0 0 0 0 0 0 0 0 0 0 0 0 0 0 0 0 0 0 0 0 0 0 0 0 0 0 0
0 0 0 0 0 0 0 0 0 0 0 0 0 0 0 0 0 0 0 0 0 0 0 0 0 0 0 0 0 0 0 0 0 0 0 0 0 0 0 0 0 0 0
0 0 0 0 0 0 0 0 0 0 0 0 0 0 0 0 0 0 0 0 0 0 0 0 0 0 0 0 0 0 0 0 0 0 0 0 0 0 0 0 0 0 0
0 0 0 0 0 0 0 0 0 0 0 0 0 0 0 0 0 0 0 0 0 0 0 0 0 0 0 0 0 0 0 0 0 0 0 0 0 0 0 0 0 0 0
0 0 0 0 0 0 0 0 0 0 0 0 0 0 0 0 0 0 0 0 0 0 0 0 0 0 0 0 0 0 0 0 0 0 0 0 0 0 0 0 0 0 0
0 0 0 0 0 0 0 0 0 0 0 0 0 0 0 0 0 0 0 0 0 0 0 0 0 0 0 0 0 0 0 0 0 0 0 0 0 0 0 0 0 0 0
Wind_Speed_500mb
57 53 48 42 39 36 36 39 39 39 41 43 42 45 47 32 35 46 57 54 53 56 57 48 55 57 51 56 63 66 70 67 60 49 51 52 53 49 53 63 67 67 65
50 48 43 38 32 33 35 36 35 34 35 37 35 36 34 31 23 35 52 53 51 53 46 47 56 51 53 44 42 55 61 68 75 71 63 61 57 53 53 56 57 57 55
46 44 41 35 31 32 35 33 29 28 28 27 23 19 23 16 22 18 23 44 46 42 49 59 55 60 64 56 52 50 50 57 53 51 36 51 55 53 58 57 53 52 52
43 41 39 35 32 30 30 29 25 25 23 21 18 15 15 9 8 17 17 26 32 38 37 39 54 52 58 62 49 45 37 43 57 56 52 43 50 61 60 61 55 52 45
42 40 37 34 31 29 25 23 21 18 17 19 22 20 14 16 15 15 20 20 20 23 26 27 34 51 49 53 54 44 40 46 52 52 53 63 56 67 63 66 62 56 49
40 37 35 32 30 27 24 20 18 16 15 14 14 14 12 8 7 6 12 3 11 12 16 19 18 23 44 54 57 64 57 50 58 59 60 65 74 70 72 73 70 66 53
39 37 35 32 30 29 26 23 20 19 18 16 13 11 12 10 8 7 4 7 6 7 10 12 12 15 24 40 49 50 53 54 58 56 54 63 73 74 84 80 78 76 66
38 38 36 35 32 29 27 26 25 25 25 28 26 24 21 22 17 16 14 16 18 19 19 13 7 7 3 9 24 40 53 56 58 62 62 59 62 67 79 75 87 79 65
34 38 37 34 32 30 28 26 26 28 32 35 36 35 32 29 24 29 35 40 44 46 44 41 38 35 28 17 1 12 21 32 40 56 56 53 56 44 60 72 70 68 66
25 32 34 32 31 30 29 28 29 31 35 39 43 45 42 41 42 47 54 58 61 60 56 54 51 50 47 42 36 29 30 27 25 31 34 34 38 41 51 56 64 52 51
15 17 19 25 29 29 28 28 29 33 38 44 49 49 49 49 44 43 47 55 58 60 60 56 51 44 45 47 50 52 53 47 49 53 60 61 57 53 50 45 36 33 40
10 10 12 14 15 17 19 21 24 26 31 37 35 39 44 43 39 38 40 41 43 46 47 44 43 37 38 39 42 43 40 36 44 53 58 60 56 51 47 39 33 31 22
8 6 8 10 12 13 13 15 17 20 22 26 29 32 33 31 30 31 33 31 33 37 41 40 37 36 33 38 41 35 31 29 31 38 48 52 50 45 38 34 24 21 20
4 1 5 7 8 9 10 13 15 21 22 25 29 33 33 34 35 36 36 36 37 38 36 35 33 31 32 35 33 30 30 30 29 33 36 38 37 35 31 28 28 30 26
10 9 9 10 10 9 9 14 14 19 19 22 27 25 27 31 31 30 30 34 36 36 32 35 34 33 33 33 31 29 29 27 25 29 28 29 29 26 25 26 21 19 21
15 14 13 11 12 15 15 19 20 22 22 23 24 23 26 25 25 28 27 25 28 33 24 27 30 29 29 29 27 26 26 25 29 28 28 28 27 24 22 21 17 15 14
21 19 17 15 12 12 16 18 17 20 21 20 21 21 20 21 20 20 22 23 23 27 20 25 26 26 27 26 25 24 24 24 25 23 22 22 20 20 19 21 20 19 21
25 24 23 21 19 15 13 13 12 13 14 15 15 16 16 16 15 16 15 16 17 18 17 19 19 20 19 18 18 17 18 20 20 21 20 22 21 18 18 17 18 14 15
32 29 27 25 22 18 15 13 11 10 9 9 9 9 11 10 11 13 13 14 14 17 19 19 19 18 17 17 16 16 15 15 14 14 14 16 17 16 16 18 18 18 17
38 35 31 26 23 19 16 13 10 9 7 4 1 2 3 6 6 5 6 7 9 10 12 12 12 13 12 12 12 14 15 17 17 17 16 16 15 15 13 13 14 11 12
39 38 33 31 28 23 20 18 18 16 15 13 9 10 10 10 11 9 6 5 5 5 4 4 5 5 4 3 3 5 7 9 11 11 12 12 12 10 10 10 9 8 7
48 45 43 37 33 31 27 26 26 26 24 21 20 21 20 21 18 16 15 14 13 11 9 7 6 6 7 7 7 8 8 8 8 8 7 7 7 7 6 6 7 7 7
51 49 46 43 39 36 35 31 30 30 29 27 26 24 26 26 23 21 20 20 18 17 15 14 14 14 13 13 13 13 14 15 15 14 14 14 13 13 12 12 12 12 12
53 50 47 44 41 38 35 32 32 33 33 33 32 30 30 30 28 23 21 21 20 20 19 18 18 17 17 17 18 18 18 18 18 19 18 17 16 16 15 14 14 15 15
54 52 49 46 43 40 38 38 38 38 37 36 34 32 31 30 26 24 24 23 23 22 22 21 21 21 20 20 20 20 20 21 22 21 21 21 22 21 21 20 20 21 22
50 49 47 46 45 43 42 41 40 40 38 37 35 34 32 30 28 27 26 26 26 27 26 26 27 26 25 24 25 26 26 26 25 25 26 27 27 26 25 25 26 27 27
Wind_Direction_500mb
330 327 323 322 317 308 306 306 302 301 297 293 293 281 290 271 265 236 239 230 229 225 216 216 221 225 233 227 232 237 238 235 222 217 225 234 236 237 235 235 234 232 237
335 332 331 328 322 318 316 314 308 308 305 302 291 284 274 262 238 224 221 223 219 218 215 223 231 228 232 236 230 237 232 220 230 239 233 233 237 241 235 234 231 230 229
341 337 337 335 328 324 323 319 312 310 312 306 302 298 257 268 269 254 222 224 221 231 229 231 234 230 229 232 237 239 232 238 237 238 238 242 235 230 229 220 221 227 229
347 344 343 345 337 331 331 329 324 319 316 315 329 314 314 301 272 246 232 230 221 223 226 225 224 226 227 228 233 239 241 245 235 237 245 240 245 230 223 213 214 210 211
353 350 351 352 349 340 340 341 340 338 338 342 344 347 328 288 279 242 238 215 208 221 229 226 222 221 223 225 231 238 233 237 238 236 234 241 241 219 215 215 205 202 192
359 357 358 0 360 358 356 360 360 357 351 340 335 345 347 329 286 211 173 266 252 234 227 219 234 238 224 218 218 229 237 232 234 235 238 240 242 228 224 207 208 192 169
8 8 9 7 7 6 4 1 8 16 13 15 14 19 40 32 38 92 127 226 203 193 187 199 233 237 241 229 223 222 229 233 239 243 243 236 243 244 224 214 205 195 183
16 18 20 19 17 15 19 26 33 38 47 52 54 55 58 59 66 90 110 119 128 124 110 105 140 180 92 254 231 224 224 225 230 235 238 241 242 241 225 222 200 193 176
24 25 26 27 31 34 38 44 51 58 59 62 66 68 70 80 100 110 116 119 115 105 95 87 84 83 77 70 311 237 232 233 225 228 228 224 223 221 219 211 192 179 160
16 28 28 32 39 43 46 54 62 68 74 72 70 72 75 83 100 105 106 105 103 100 98 94 84 78 76 84 92 105 125 127 151 174 177 180 180 181 180 184 183 183 170
2 17 21 35 42 47 53 57 63 68 71 72 72 73 76 78 84 92 99 102 97 98 95 92 88 84 82 85 85 85 93 107 119 124 125 126 129 139 145 157 168 174 176
332 5 10 21 33 37 41 45 48 52 61 69 70 73 71 73 76 78 81 85 92 91 88 91 98 103 103 102 100 95 101 114 120 123 123 123 127 133 136 146 149 154 159
310 352 16 15 33 43 46 54 59 63 68 74 74 76 79 81 82 82 87 87 89 95 95 94 92 90 90 97 104 109 115 115 114 117 117 117 120 125 130 134 137 131 140
260 23 68 61 57 65 72 73 76 79 73 74 76 78 80 80 80 82 83 85 84 82 86 89 87 90 92 90 97 100 99 100 108 109 115 118 124 129 134 134 138 132 144
189 159 123 105 91 80 88 86 77 80 78 77 76 82 82 84 87 87 86 87 88 86 85 87 89 89 90 91 92 93 95 99 102 99 101 107 116 122 130 130 132 133 139
193 168 147 126 107 103 97 98 95 84 81 79 77 75 77 79 80 86 86 84 86 82 88 89 89 87 88 88 87 91 94 90 89 96 105 113 120 122 124 126 126 133 134
195 185 172 163 155 140 118 108 92 91 85 88 94 100 97 92 95 95 93 92 99 96 95 87 84 85 86 88 91 96 99 99 95 96 96 96 93 97 99 103 107 109 116
204 194 192 188 176 164 148 134 122 102 95 87 77 70 70 74 78 83 81 86 84 91 84 81 82 85 86 83 85 86 88 93 102 108 113 114 118 120 120 124 125 123 121
209 205 200 197 189 187 186 181 168 155 139 124 108 86 79 79 83 84 88 92 92 96 98 102 102 101 103 109 117 124 125 123 123 119 121 120 120 111 117 120 120 122 124
208 210 208 207 208 205 205 209 211 210 208 201 186 38 43 40 42 33 44 49 52 52 56 55 59 67 71 85 101 113 120 125 127 128 128 127 127 125 123 122 127 131 139
213 218 218 217 218 221 227 232 241 247 249 254 271 286 296 297 295 295 308 329 337 337 354 22 25 27 27 35 79 110 128 134 135 137 137 138 139 143 146 153 160 169 172
213 216 219 219 220 224 228 231 238 245 248 250 255 258 258 259 259 259 258 254 248 250 247 240 236 233 230 231 232 229 214 196 184 182 183 187 191 193 195 196 199 201 197
217 218 221 223 224 226 232 235 239 244 248 251 255 259 258 260 258 255 255 251 245 244 246 247 246 243 239 236 232 223 214 210 209 208 209 211 214 217 216 216 215 212 211
220 223 226 229 231 235 239 244 248 250 251 252 253 252 252 251 247 243 245 245 244 243 243 245 248 248 244 239 234 227 222 221 219 219 221 225 231 236 238 236 233 233 236
222 227 229 232 236 241 243 245 248 249 251 253 253 252 254 254 253 250 249 250 251 252 252 254 256 255 251 246 241 235 232 229 229 230 234 239 243 245 243 242 243 245 247
223 227 231 233 234 237 239 243 247 250 252 254 253 254 256 257 255 255 255 252 249 249 254 260 261 258 253 251 248 245 244 244 246 248 249 251 253 253 253 253 254 258 260
Wind_Speed_850mb
57 53 48 42 39 36 36 39 39 39 41 43 42 45 47 32 35 46 57 54 53 56 57 48 55 57 51 56 63 66 70 67 60 49 51 52 53 49 53 63 67 67 65
50 48 43 38 32 33 35 36 35 34 35 37 35 36 34 31 23 35 52 53 51 53 46 47 56 51 53 44 42 55 61 68 75 71 63 61 57 53 53 56 57 57 55
46 44 41 35 31 32 35 33 29 28 28 27 23 19 23 16 22 18 23 44 46 42 49 59 55 60 64 56 52 50 50 57 53 51 36 51 55 53 58 57 53 52 52
43 41 39 35 32 30 30 29 25 25 23 21 18 15 15 9 8 17 17 26 32 38 37 39 54 52 58 62 49 45 37 43 57 56 52 43 50 61 60 61 55 52 45
42 40 37 34 31 29 25 23 21 18 17 19 22 20 14 16 15 15 20 20 20 23 26 27 34 51 49 53 54 44 40 46 52 52 53 63 56 67 63 66 62 56 49
40 37 35 32 30 27 24 20 18 16 15 14 14 14 12 8 7 6 12 3 11 12 16 19 18 23 44 54 57 64 57 50 58 59 60 65 74 70 72 73 70 66 53
39 37 35 32 30 29 26 23 20 19 18 16 13 11 12 10 8 7 4 7 6 7 10 12 12 15 24 40 49 50 53 54 58 56 54 63 73 74 84 80 78 76 66
38 38 36 35 32 29 27 26 25 25 25 28 26 24 21 22 17 16 14 16 18 19 19 13 7 7 3 9 24 40 53 56 58 62 62 59 62 67 79 75 87 79 65
34 38 37 34 32 30 28 26 26 28 32 35 36 35 32 29 24 29 35 40 44 46 44 41 38 35 28 17 1 12 21 32 40 56 56 53 56 44 60 72 70 68 66
25 32 34 32 31 30 29 28 29 31 35 39 43 45 42 41 42 47 54 58 61 60 56 54 51 50 47 42 36 29 30 27 25 31 34 34 38 41 51 56 64 52 51
15 17 19 25 29 29 28 28 29 33 38 44 49 49 49 49 44 43 47 55 58 60 60 56 51 44 45 47 50 52 53 47 49 53 60 61 57 53 50 45 36 33 40
10 10 12 14 15 17 19 21 24 26 31 37 35 39 44 43 39 38 40 41 43 46 47 44 43 37 38 39 42 43 40 36 44 53 58 60 56 51 47 39 33 31 22
8 6 8 10 12 13 13 15 17 20 22 26 29 32 33 31 30 31 33 31 33 37 41 40 37 36 33 38 41 35 31 29 31 38 48 52 50 45 38 34 24 21 20
4 1 5 7 8 9 10 13 15 21 22 25 29 33 33 34 35 36 36 36 37 38 36 35 33 31 32 35 33 30 30 30 29 33 36 38 37 35 31 28 28 30 26
10 9 9 10 10 9 9 14 14 19 19 22 27 25 27 31 31 30 30 34 36 36 32 35 34 33 33 33 31 29 29 27 25 29 28 29 29 26 25 26 21 19 21
15 14 13 11 12 15 15 19 20 22 22 23 24 23 26 25 25 28 27 25 28 33 24 27 30 29 29 29 27 26 26 25 29 28 28 28 27 24 22 21 17 15 14
21 19 17 15 12 12 16 18 17 20 21 20 21 21 20 21 20 20 22 23 23 27 20 25 26 26 27 26 25 24 24 24 25 23 22 22 20 20 19 21 20 19 21
25 24 23 21 19 15 13 13 12 13 14 15 15 16 16 16 15 16 15 16 17 18 17 19 19 20 19 18 18 17 18 20 20 21 20 22 21 18 18 17 18 14 15
32 29 27 25 22 18 15 13 11 10 9 9 9 9 11 10 11 13 13 14 14 17 19 19 19 18 17 17 16 16 15 15 14 14 14 16 17 16 16 18 18 18 17
38 35 31 26 23 19 16 13 10 9 7 4 1 2 3 6 6 5 6 7 9 10 12 12 12 13 12 12 12 14 15 17 17 17 16 16 15 15 13 13 14 11 12
39 38 33 31 28 23 20 18 18 16 15 13 9 10 10 10 11 9 6 5 5 5 4 4 5 5 4 3 3 5 7 9 11 11 12 12 12 10 10 10 9 8 7
48 45 43 37 33 31 27 26 26 26 24 21 20 21 20 21 18 16 15 14 13 11 9 7 6 6 7 7 7 8 8 8 8 8 7 7 7 7 6 6 7 7 7
51 49 46 43 39 36 35 31 30 30 29 27 26 24 26 26 23 21 20 20 18 17 15 14 14 14 13 13 13 13 14 15 15 14 14 14 13 13 12 12 12 12 12
53 50 47 44 41 38 35 32 32 33 33 33 32 30 30 30 28 23 21 21 20 20 19 18 18 17 17 17 18 18 18 18 18 19 18 17 16 16 15 14 14 15 15
54 52 49 46 43 40 38 38 38 38 37 36 34 32 31 30 26 24 24 23 23 22 22 21 21 21 20 20 20 20 20 21 22 21 21 21 22 21 21 20 20 21 22
50 49 47 46 45 43 42 41 40 40 38 37 35 34 32 30 28 27 26 26 26 27 26 26 27 26 25 24 25 26 26 26 25 25 26 27 27 26 25 25 26 27 27
Wind_Direction_850mb
330 327 323 322 317 308 306 306 302 301 297 293 293 281 290 271 265 236 239 230 229 225 216 216 221 225 233 227 232 237 238 235 222 217 225 234 236 237 235 235 234 232 237
335 332 331 328 322 318 316 314 308 308 305 302 291 284 274 262 238 224 221 223 219 218 215 223 231 228 232 236 230 237 232 220 230 239 233 233 237 241 235 234 231 230 229
341 337 337 335 328 324 323 319 312 310 312 306 302 298 257 268 269 254 222 224 221 231 229 231 234 230 229 232 237 239 232 238 237 238 238 242 235 230 229 220 221 227 229
347 344 343 345 337 331 331 329 324 319 316 315 329 314 314 301 272 246 232 230 221 223 226 225 224 226 227 228 233 239 241 245 235 237 245 240 245 230 223 213 214 210 211
353 350 351 352 349 340 340 341 340 338 338 342 344 347 328 288 279 242 238 215 208 221 229 226 222 221 223 225 231 238 233 237 238 236 234 241 241 219 215 215 205 202 192
359 357 358 0 360 358 356 360 360 357 351 340 335 345 347 329 286 211 173 266 252 234 227 219 234 238 224 218 218 229 237 232 234 235 238 240 242 228 224 207 208 192 169
8 8 9 7 7 6 4 1 8 16 13 15 14 19 40 32 38 92 127 226 203 193 187 199 233 237 241 229 223 222 229 233 239 243 243 236 243 244 224 214 205 195 183
16 18 20 19 17 15 19 26 33 38 47 52 54 55 58 59 66 90 110 119 128 124 110 105 140 180 92 254 231 224 224 225 230 235 238 241 242 241 225 222 200 193 176
24 25 26 27 31 34 38 44 51 58 59 62 66 68 70 80 100 110 116 119 115 105 95 87 84 83 77 70 311 237 232 233 225 228 228 224 223 221 219 211 192 179 160
16 28 28 32 39 43 46 54 62 68 74 72 70 72 75 83 100 105 106 105 103 100 98 94 84 78 76 84 92 105 125 127 151 174 177 180 180 181 180 184 183 183 170
2 17 21 35 42 47 53 57 63 68 71 72 72 73 76 78 84 92 99 102 97 98 95 92 88 84 82 85 85 85 93 107 119 124 125 126 129 139 145 157 168 174 176
332 5 10 21 33 37 41 45 48 52 61 69 70 73 71 73 76 78 81 85 92 91 88 91 98 103 103 102 100 95 101 114 120 123 123 123 127 133 136 146 149 154 159
310 352 16 15 33 43 46 54 59 63 68 74 74 76 79 81 82 82 87 87 89 95 95 94 92 90 90 97 104 109 115 115 114 117 117 117 120 125 130 134 137 131 140
260 23 68 61 57 65 72 73 76 79 73 74 76 78 80 80 80 82 83 85 84 82 86 89 87 90 92 90 97 100 99 100 108 109 115 118 124 129 134 134 138 132 144
189 159 123 105 91 80 88 86 77 80 78 77 76 82 82 84 87 87 86 87 88 86 85 87 89 89 90 91 92 93 95 99 102 99 101 107 116 122 130 130 132 133 139
193 168 147 126 107 103 97 98 95 84 81 79 77 75 77 79 80 86 86 84 86 82 88 89 89 87 88 88 87 91 94 90 89 96 105 113 120 122 124 126 126 133 134
195 185 172 163 155 140 118 108 92 91 85 88 94 100 97 92 95 95 93 92 99 96 95 87 84 85 86 88 91 96 99 99 95 96 96 96 93 97 99 103 107 109 116
204 194 192 188 176 164 148 134 122 102 95 87 77 70 70 74 78 83 81 86 84 91 84 81 82 85 86 83 85 86 88 93 102 108 113 114 118 120 120 124 125 123 121
209 205 200 197 189 187 186 181 168 155 139 124 108 86 79 79 83 84 88 92 92 96 98 102 102 101 103 109 117 124 125 123 123 119 121 120 120 111 117 120 120 122 124
208 210 208 207 208 205 205 209 211 210 208 201 186 38 43 40 42 33 44 49 52 52 56 55 59 67 71 85 101 113 120 125 127 128 128 127 127 125 123 122 127 131 139
213 218 218 217 218 221 227 232 241 247 249 254 271 286 296 297 295 295 308 329 337 337 354 22 25 27 27 35 79 110 128 134 135 137 137 138 139 143 146 153 160 169 172
213 216 219 219 220 224 228 231 238 245 248 250 255 258 258 259 259 259 258 254 248 250 247 240 236 233 230 231 232 229 214 196 184 182 183 187 191 193 195 196 199 201 197
217 218 221 223 224 226 232 235 239 244 248 251 255 259 258 260 258 255 255 251 245 244 246 247 246 243 239 236 232 223 214 210 209 208 209 211 214 217 216 216 215 212 211
220 223 226 229 231 235 239 244 248 250 251 252 253 252 252 251 247 243 245 245 244 243 243 245 248 248 244 239 234 227 222 221 219 219 221 225 231 236 238 236 233 233 236
222 227 229 232 236 241 243 245 248 249 251 253 253 252 254 254 253 250 249 250 251 252 252 254 256 255 251 246 241 235 232 229 229 230 234 239 243 245 243 242 243 245 247
223 227 231 233 234 237 239 243 247 250 252 254 253 254 256 257 255 255 255 252 249 249 254 260 261 258 253 251 248 245 244 244 246 248 249 251 253 253 253 253 254 258 260